Back to catalog

STARLINK-34398

AliveCommunicationsVLEO
NORAD 64445·PAYLOAD·🇺🇸 United States

Launched Jun 18, 2025 from Cape Canaveral Space Force Station

Loading…

Next Passes (next 24 hours)

TLE

FreshSource: CelesTrak SupGP

Epoch: Sep 15, 2026, 03:50 UTC

1 64445C 25130H   26258.16020833 -.00007315  00000+0 -21605-3 0  2582
2 64445  53.1565 287.0112 0001085 107.8277 209.1613 15.34406401    18

Track STARLINK-34398 in real time with AllMySat

Download on the App Store